Regional Weather Roundup
Issued by NWS Northern Indiana

Home | Current Version | Previous Version | Graphics & Text | Print | Product List | Glossary On
Versions: 1 2 3 4 5 6 7 8 9 10 11 12 13 14 15 16 17 18 19 20 21 22 23 24 25 26 27 28 29 30 31 32 33 34 35 36 37 38 39 40 41 42 43 44 45 46 47 48 49 50
000
ASUS43 KIWX 242010
RWRIWX

KIWX WEATHER ROUNDUP
NATIONAL WEATHER SERVICE NORTHERN INDIANA
400 PM EDT WED MAY 24 2017

NOTE: "FAIR" INDICATES FEW OR NO CLOUDS BELOW 12,000 FEET WITH NO
SIGNIFICANT WEATHER AND/OR OBSTRUCTIONS TO VISIBILITY.

* THESE STATIONS ARE NOT UNDER NWS QUALITY CONTROL. THEY ALSO MAY NOT
  REPORT WEATHER SUCH AS PRECIPITATION OR FOG.

INZ001>027-242100-
NORTHERN INDIANA

CITY           SKY/WX    TMP DP  RH WIND       PRES   REMARKS
GARY*          CLOUDY    57  50  77 N14       29.54S
VALPARAISO     CLOUDY    63  55  75 N8        29.51F
MICHIGAN CITY* CLOUDY    55  55 100 N8        29.51S
LAPORTE*       DRIZZLE   60  55  84 E9G20     29.53R
KNOX*          CLOUDY    61  50  67 NW10      29.50R
SOUTH BEND     LGT RAIN  60  58  92 W10       29.49S
ELKHART*       CLOUDY    70  48  46 E9        29.47F
GOSHEN         CLOUDY    71  53  52 E7        29.46F
MONTICELLO*    LGT RAIN  62  57  86 CALM      29.49F
LOGANSPORT*    LGT RAIN  61  59  94 W5        29.49F
ROCHESTER*     DRIZZLE   68  52  56 W6        29.48S
WARSAW*        CLOUDY    66  55  68 CALM      29.47F
ANGOLA*        CLOUDY    61  50  67 E9        29.50R
FORT WAYNE     CLOUDY    62  57  83 NW8       29.45F
HUNTINGTON*    LGT RAIN  57  56  95 CALM      29.47F
PERU/GRISSOM   LGT RAIN  60  59  99 W5        29.47S
MARION*        LGT RAIN  59  57  94 NW5       29.48S

$$
INZ028>050-242100-
CENTRAL INDIANA

CITY           SKY/WX    TMP DP  RH WIND       PRES   REMARKS
LAFAYETTE      LGT RAIN  61  59  93 N6        29.49F FOG
KOKOMO*        LGT RAIN  59  57  93 NW7       29.49F
MUNCIE*        RAIN      61  58  90 NW7       29.45F FOG
INDIANAPOLIS   LGT RAIN  60  58  92 NW9       29.45F FOG

$$
MIZ043>046-050>051-056>058-064>065-071>073-077>080-242100-
SOUTHWEST LOWER MICHIGAN

CITY           SKY/WX    TMP DP  RH WIND       PRES   REMARKS
BATTLE CREEK   LGT RAIN  65  60  84 NE7       29.52R
BENTON HARBOR  CLOUDY    60  55  83 N7        29.49S
COLDWATER*     RAIN      61  59  92 E7        29.51R
HILLSDALE*     LGT RAIN  59  55  88 E10       29.52F
HOLLAND        MOSUNNY   70  55  59 E14       29.52F
GRAND RAPIDS   CLOUDY    70  56  61 E18       29.53F
KALAMAZOO      CLOUDY    70  55  59 VRB7G16   29.50F
STURGIS*       CLOUDY    66  55  66 E16G23    29.48S
THREE RIVERS*  PTSUNNY   68  56  66 NE7       29.49F

$$
OHZ001>008-015>018-024>025-242100-
NORTHWEST OHIO

CITY           SKY/WX    TMP DP  RH WIND       PRES   REMARKS
WAUSEON*       PTSUNNY   63  57  82 E17       29.50F
DEFIANCE       HVY RAIN  59  56  89 NE17G23   29.48F FOG
FINDLAY        CLOUDY    67  56  67 E16G22    29.46F
TOLEDO EXPRESS MOSUNNY   66  59  78 NE18G24   29.50F
TOLEDO METCALF CLOUDY    65  58  78 E14G22    29.52S
LIMA           CLOUDY    69  58  67 E16G23    29.44F

$$
AND FOR LAKE MICHIGAN COASTAL AND OPEN LAKE BUOY OBSERVATIONS

STATION/POSITION TEMP    WIND        PRES    VSBY  WAVE
                 AIR SEA DIR/SP/G                  HT/PER
                 (F)     (DEG/KT/KT) (MB)    (MI)  (FT/S)
CALUMET HARBOR    55     330/ 13/ 21 1000.1S
MICHIGAN CITY     53      20/ 11/ 13   N/A
BURNS HARBOR      52      10/  3/  5 1000.7R
SOUTH LAKE BUOY   49 45   10/ 17/ 19 1000.6          3/ 4
4 MI NW BRIDGMAN  55 56   30/ 14/ 17  999.2          4/ 4
MICHIGAN CITY     52 54   10/ 16/ 19   N/A           4/ 5

$$
&&




USA.gov is the U.S. government's official web portal to all federal, state and local government web resources and services.